Regional Weather Roundup
Issued by NWS

Home | Current Version | Previous Version | Graphics & Text | Print | Product List | Glossary On
Versions: 1 2 3 4 5 6 7 8 9 10 11 12 13 14 15 16 17 18 19 20 21 22 23 24 25 26 27 28 29 30 31 32 33 34 35 36 37 38 39 40 41 42 43 44 45 46 47 48 49 50
000
ASUS43 KOAX 280810
RWRNE

WEATHER ROUNDUP FOR NEBRASKA
NATIONAL WEATHER SERVICE OMAHA NE
300 AM CDT THU JUL 28 2016

NOTES: SATELLITE DATA IS BEING USED TO AUGMENT CLOUD COVER ABOVE
       12000 FEET.
       "FAIR" INDICATES FEW OR NO CLOUDS BELOW 12,000 FEET WITH NO
       SIGNIFICANT WEATHER AND/OR OBSTRUCTIONS TO VISIBILITY.

  * THESE STATIONS DO NOT REPORT WEATHER SUCH AS RAIN...SNOW OR FOG.

NEZ001>004-019>022-054>056-280900-
NEBRASKA PANHANDLE

CITY           SKY/WX    TMP DP  RH WIND       PRES   REMARKS
SCOTTSBLUFF    CLEAR     63  59  87 E8        30.14F
ALLIANCE       CLEAR     59  54  83 E8        30.14F
CHADRON        MOCLDY    66  60  81 NE9       30.15R
KIMBALL        CLEAR     61  61 100 SE9       30.19F
SIDNEY         CLOUDY    62  60  93 SE7       30.16F
$$

NEZ057>060-069>072-079>082-280900-
SOUTHWEST NEBRASKA

CITY           SKY/WX    TMP DP  RH WIND       PRES   REMARKS
NORTH PLATTE   PTCLDY    63  60  90 CALM      30.10F
IMPERIAL       TSTM      67  60  78 NW26G36   30.21R
LEXINGTON      PTCLDY    64  61  88 SW3       30.08F
MCCOOK         CLOUDY    70  67  90 NE3       30.11S
OGALLALA       CLOUDY    67  58  74 E8        30.09F
$$

NEZ005>010-023>029-035>040-094-280900-
NORTH CENTRAL NEBRASKA

CITY           SKY/WX    TMP DP  RH WIND       PRES   REMARKS
VALENTINE      CLEAR     57  55  93 MISG      30.12S
AINSWORTH      CLEAR     59  58  96 W5        30.11S
BROKEN BOW     CLEAR     58  57  97 CALM      30.08S
O`NEILL        CLEAR     63  61  94 N6        30.07F
ORD            CLEAR     60  57  89 NW3       30.06S
THEDFORD       CLEAR     59  58  96 CALM      30.12R
$$

NEZ041-046>049-061>064-073>077-083>087-280900-
SOUTH CENTRAL NEBRASKA

CITY           SKY/WX    TMP DP  RH WIND       PRES   REMARKS
GRAND ISLAND   CLEAR     64  61  90 W3        30.05R
AURORA         PTCLDY    64  63  97 CALM      30.04S
HASTINGS       CLEAR     65  62  90 NW3       30.06F
HEBRON         PTCLDY    71  65  81 N5        30.03S
HOLDREGE       PTCLDY    65  63  93 N3        30.08F
KEARNEY *      CLEAR     64   9  11 CALM      30.08S
YORK           CLOUDY    64  63  94 NW5       30.04R
$$

NEZ011>018-030>034-042>045-280900-
NORTHEAST NEBRASKA

CITY           SKY/WX    TMP DP  RH WIND       PRES   REMARKS
NORFOLK        CLOUDY    65  63  93 N5        30.03S
ALBION         PTCLDY    65  60  84 N8        30.05S
BLAIR          PTCLDY    73  68  87 N5        30.00S
FREMONT        MOCLDY    69  63  82 W7        30.01S
TEKAMAH        PTCLDY    71  67  87 N7        29.99S
WAYNE          CLOUDY    66  64  94 NE5       30.04S
$$

NEZ050>053-065>068-078-088>093-280900-
SOUTHEAST NEBRASKA

CITY           SKY/WX    TMP DP  RH WIND       PRES   REMARKS
LINCOLN        LGT RAIN  71  63  75 N9        30.00F
OMAHA EPPLEY   PTCLDY    72  68  87 N5        29.98R
BEATRICE       PTCLDY    68  66  93 NW5       30.00R
FALLS CITY     CLEAR     71  70  96 W3        29.95S
NEBRASKA CITY  CLEAR     71  71 100 NW5       29.98R
PLATTSMOUTH    CLEAR     70  68  93 NW5       29.98S
$$

NEZ044-045-051>053-067-280900-
OMAHA AREA

CITY           SKY/WX    TMP DP  RH WIND       PRES   REMARKS
OMAHA EPPLEY   PTCLDY    72  68  87 N5        29.98R
BLAIR          PTCLDY    73  68  87 N5        30.00S
FREMONT        MOCLDY    69  63  82 W7        30.01S
MILLARD        PTCLDY    73  67  80 NW3       29.98S
OFFUTT AFB     CLEAR     71  68  88 N6        29.97S
PLATTSMOUTH    CLEAR     70  68  93 NW5       29.98S
WAHOO          PTSUNNY   69  64  84 NW5       30.00S
$$



USA.gov is the U.S. government's official web portal to all federal, state and local government web resources and services.